• In Hungary
  • List of Countries
  • For 7 days
  • Water Temperature
  • Satellite Maps
  • Weather Map
  • News
  • Weather Widgets
  • user-avatar
    Login

    Hourly Weather Astana

    Today, 14 November, Wednesday

    Time Temperature Precipitation Wind Pressure Humidity
    00:00 -10°C° 0 mm 2 mps 744 mmHg 88%
    01:00 -10°C° 0 mm 2 mps 745 mmHg 88%
    02:00 -10°C° 0 mm 2 mps 745 mmHg 88%
    03:00 -12°C° 0 mm 2 mps 745 mmHg 88%
    04:00 -12°C° 0 mm 2 mps 745 mmHg 88%
    05:00 -13°C° 0 mm 3 mps 745 mmHg 88%
    06:00 -13°C° 0 mm 3 mps 745 mmHg 87%
    07:00 -13°C° 0 mm 3 mps 745 mmHg 87%
    08:00 -13°C° 0 mm 3 mps 744 mmHg 87%
    09:00 -13°C° 0 mm 3 mps 745 mmHg 84%
    10:00 -12°C° 0 mm 4 mps 745 mmHg 81%
    11:00 -11°C° 0 mm 4 mps 745 mmHg 77%
    12:00 -10°C° 0 mm 4 mps 744 mmHg 77%
    13:00 -10°C° 0 mm 4 mps 744 mmHg 76%
    14:00 -9°C° 0 mm 4 mps 744 mmHg 75%
    15:00 -10°C° 0 mm 4 mps 744 mmHg 78%
    16:00 -11°C° 0 mm 4 mps 744 mmHg 82%
    17:00 -11°C° 0 mm 4 mps 744 mmHg 85%
    18:00 -12°C° 0 mm 4 mps 744 mmHg 85%
    19:00 -12°C° 0 mm 4 mps 744 mmHg 86%
    20:00 -12°C° 0 mm 4 mps 744 mmHg 87%
    21:00 -14°C° 0 mm 4 mps 744 mmHg 87%
    22:00 -14°C° 0 mm 4 mps 744 mmHg 87%
    23:00 -14°C° 0 mm 4 mps 744 mmHg 86%

    Tomorrow, 15 November, Thursday

    Time Temperature Precipitation Wind Pressure Humidity
    00:00 -14°C° 0 mm 4 mps 744 mmHg 86%
    01:00 -14°C° 0 mm 4 mps 744 mmHg 86%
    02:00 -14°C° 0 mm 4 mps 744 mmHg 85%
    03:00 -15°C° 0 mm 4 mps 744 mmHg 84%
    04:00 -15°C° 0 mm 4 mps 744 mmHg 83%
    05:00 -15°C° 0 mm 4 mps 744 mmHg 82%
    06:00 -15°C° 0 mm 4 mps 744 mmHg 81%
    07:00 -15°C° 0 mm 4 mps 744 mmHg 79%
    08:00 -15°C° 0 mm 4 mps 744 mmHg 78%
    09:00 -14°C° 0 mm 4 mps 744 mmHg 74%
    10:00 -11°C° 0 mm 4 mps 745 mmHg 70%
    11:00 -10°C° 0 mm 4 mps 745 mmHg 66%
    12:00 -10°C° 0 mm 4 mps 745 mmHg 66%
    13:00 -9°C° 0 mm 4 mps 745 mmHg 66%
    14:00 -9°C° 0 mm 4 mps 745 mmHg 67%
    15:00 -9°C° 0 mm 4 mps 745 mmHg 70%
    16:00 -10°C° 0 mm 4 mps 745 mmHg 74%
    17:00 -11°C° 0 mm 4 mps 745 mmHg 77%
    18:00 -11°C° 0 mm 4 mps 745 mmHg 77%
    19:00 -12°C° 0 mm 4 mps 745 mmHg 78%
    20:00 -12°C° 0 mm 4 mps 746 mmHg 78%
    21:00 -12°C° 0 mm 3 mps 746 mmHg 78%
    22:00 -12°C° 0 mm 3 mps 746 mmHg 78%
    23:00 -12°C° 0 mm 3 mps 746 mmHg 79%

    Day after tomorrow, 16 November, Friday

    Time Temperature Precipitation Wind Pressure Humidity
    00:00 -13°C° 0 mm 3 mps 746 mmHg 79%
    01:00 -13°C° 0 mm 3 mps 746 mmHg 79%
    02:00 -13°C° 0 mm 3 mps 746 mmHg 80%
    03:00 -13°C° 0 mm 3 mps 746 mmHg 80%
    04:00 -13°C° 0 mm 3 mps 746 mmHg 80%
    05:00 -13°C° 0 mm 3 mps 746 mmHg 80%
    06:00 -13°C° 0 mm 3 mps 747 mmHg 79%
    07:00 -13°C° 0 mm 3 mps 747 mmHg 79%
    08:00 -13°C° 0 mm 3 mps 747 mmHg 79%
    09:00 -12°C° 0 mm 3 mps 747 mmHg 76%
    10:00 -10°C° 0 mm 3 mps 747 mmHg 72%
    11:00 -9°C° 0 mm 3 mps 747 mmHg 69%
    12:00 -9°C° 0 mm 3 mps 747 mmHg 69%
    13:00 -8°C° 0 mm 3 mps 747 mmHg 69%
    14:00 -7°C° 0 mm 2 mps 747 mmHg 70%
    15:00 -8°C° 0 mm 2 mps 747 mmHg 73%
    16:00 -8°C° 0 mm 2 mps 746 mmHg 76%
    17:00 -9°C° 0 mm 2 mps 746 mmHg 79%
    18:00 -10°C° 0 mm 2 mps 746 mmHg 80%
    19:00 -10°C° 0 mm 2 mps 746 mmHg 80%
    20:00 -10°C° 0 mm 2 mps 746 mmHg 80%
    21:00 -10°C° 0 mm 2 mps 746 mmHg 80%
    22:00 -10°C° 0 mm 2 mps 745 mmHg 80%
    23:00 -12°C° 0 mm 2 mps 745 mmHg 80%

    17 November, Saturday

    Time Temperature Precipitation Wind Pressure Humidity
    00:00 -12°C° 0 mm 2 mps 745 mmHg 80%
    01:00 -12°C° 0 mm 2 mps 744 mmHg 80%
    02:00 -12°C° 0 mm 2 mps 744 mmHg 80%
    03:00 -12°C° 0 mm 2 mps 743 mmHg 80%
    04:00 -13°C° 0 mm 3 mps 743 mmHg 80%
    05:00 -13°C° 0 mm 3 mps 742 mmHg 80%
    06:00 -13°C° 0 mm 3 mps 742 mmHg 80%
    07:00 -13°C° 0 mm 3 mps 742 mmHg 80%
    08:00 -13°C° 0 mm 3 mps 741 mmHg 79%
    09:00 -12°C° 0 mm 3 mps 741 mmHg 77%
    10:00 -10°C° 0 mm 3 mps 741 mmHg 74%
    11:00 -9°C° 0 mm 3 mps 740 mmHg 72%
    12:00 -9°C° 0 mm 3 mps 740 mmHg 72%
    13:00 -9°C° 0 mm 3 mps 739 mmHg 72%
    14:00 -8°C° 0 mm 3 mps 739 mmHg 73%
    15:00 -9°C° 0 mm 3 mps 738 mmHg 76%
    16:00 -10°C° 0 mm 3 mps 738 mmHg 79%
    17:00 -10°C° 0 mm 3 mps 737 mmHg 82%
    18:00 -10°C° 0 mm 3 mps 737 mmHg 82%
    19:00 -12°C° 0 mm 3 mps 737 mmHg 82%
    20:00 -12°C° 0 mm 3 mps 736 mmHg 82%
    21:00 -12°C° 0 mm 3 mps 736 mmHg 82%
    22:00 -10°C° 0 mm 3 mps 736 mmHg 81%
    23:00 -10°C° 0 mm 3 mps 735 mmHg 81%

    18 November, Sunday

    Time Temperature Precipitation Wind Pressure Humidity
    00:00 -10°C° 0 mm 3 mps 735 mmHg 81%
    01:00 -10°C° 0 mm 3 mps 735 mmHg 81%
    02:00 -10°C° 0 mm 3 mps 735 mmHg 80%
    03:00 -10°C° 0 mm 3 mps 734 mmHg 81%
    04:00 -10°C° 0 mm 3 mps 734 mmHg 82%
    05:00 -10°C° 0 mm 3 mps 734 mmHg 82%
    06:00 -10°C° 0 mm 3 mps 734 mmHg 84%
    07:00 -9°C° 0 mm 2 mps 734 mmHg 86%
    08:00 -9°C° 0 mm 2 mps 734 mmHg 87%
    09:00 -8°C° 0 mm 2 mps 735 mmHg 86%
    10:00 -8°C° 0 mm 2 mps 735 mmHg 85%
    11:00 -7°C° 0 mm 2 mps 735 mmHg 84%
    12:00 -7°C° 0 mm 2 mps 735 mmHg 84%
    13:00 -6°C° 0 mm 2 mps 735 mmHg 83%
    14:00 -6°C° 0 mm 2 mps 735 mmHg 83%
    15:00 -6°C° 0 mm 2 mps 736 mmHg 85%
    16:00 -4°C° 0 mm 1 mps 736 mmHg 87%
    17:00 -4°C° 0 mm 1 mps 736 mmHg 89%
    18:00 -4°C° 0 mm 1 mps 737 mmHg 89%
    19:00 -4°C° 0 mm 1 mps 737 mmHg 90%
    20:00 -4°C° 0 mm 1 mps 737 mmHg 91%
    21:00 -4°C° 0 mm 1 mps 738 mmHg 90%
    22:00 -4°C° 0 mm 1 mps 738 mmHg 90%
    23:00 -4°C° 0 mm 1 mps 738 mmHg 90%

    19 November, Monday

    Time Temperature Precipitation Wind Pressure Humidity
    00:00 -6°C° 0 mm 2 mps 738 mmHg 90%
    01:00 -6°C° 0 mm 2 mps 738 mmHg 91%
    02:00 -6°C° 0 mm 2 mps 738 mmHg 91%
    03:00 -6°C° 0 mm 2 mps 738 mmHg 91%
    04:00 -7°C° 0 mm 3 mps 738 mmHg 92%
    05:00 -7°C° 0 mm 3 mps 738 mmHg 93%
    06:00 -7°C° 0 mm 3 mps 738 mmHg 93%
    07:00 -7°C° 0 mm 3 mps 738 mmHg 93%
    08:00 -7°C° 0 mm 3 mps 738 mmHg 94%
    09:00 -8°C° 0 mm 4 mps 739 mmHg 92%
    10:00 -7°C° 0 mm 4 mps 739 mmHg 90%
    11:00 -5°C° 0 mm 4 mps 739 mmHg 88%
    12:00 -6°C° 0 mm 5 mps 738 mmHg 87%
    13:00 -6°C° 0 mm 5 mps 738 mmHg 86%
    14:00 -6°C° 0 mm 5 mps 738 mmHg 85%
    15:00 -5°C° 0 mm 4 mps 738 mmHg 88%
    16:00 -7°C° 0 mm 4 mps 738 mmHg 90%
    17:00 -7°C° 0 mm 4 mps 738 mmHg 92%
    18:00 -8°C° 0 mm 4 mps 738 mmHg 92%
    19:00 -8°C° 0 mm 4 mps 737 mmHg 92%
    20:00 -8°C° 0 mm 4 mps 737 mmHg 93%
    21:00 -8°C° 0 mm 4 mps 737 mmHg 93%
    22:00 -8°C° 0 mm 4 mps 737 mmHg 93%
    23:00 -7°C° 0 mm 3 mps 736 mmHg 93%
    Show more